NOAA 16 DEB, 41534

Orbit data source: Space-Track

NOAA 16 DEB, 41534 is space debris in SSO originally from a launch on Thu, 21 Sep 2000 UTC launched from the Air Force Western Test Range (AFWTR). Debris objects in space refer to the collection of defunct objects orbiting the Earth. Examples of debris include non-operational satellites, rocket bodies, and fragments generated from explosions, collisions, or faulty payload assembly.

Loading next visibility...
Identifier
41534, 2000-055NJ
Orbit
SSO
Country
Flag of USUS
Related business
Manufacturer
Unknown
Mission
Spacecraft
Bus & Motor
Unknown
Mass
Unknown
Launch date (UTC)
2000-09-21 (25 years ago)
Launch vehicle
Unknown
Launch site
Air Force Western Test Range (AFWTR)
Object type
Payload
Rocket body
Debris
Shape & HBR
Unknown shape, 0.1 m
Radar Cross Section
Small (<0.1 m²)

Expand to show TLE details & history
Last TLE update: 11 hours ago

TLE from 11 hours ago
0 NOAA 16 DEB
1 41534U 00055NJ  25343.45869842  .00010745  00000-0  40071-2 0  9991
2 41534  98.8178  63.7657 0016517  16.8029 343.3697 14.32031155496166
Epoch: 2025-12-09T11:00Z
TLE epoch observation values (Epoch: 2025-12-09T11:00:31.543Z)
Latitude
-0.00009°
Longitude
-179.8088°
Altitude
776.54 km
Speed
7.472 km/s
True Right ascension
04h 15m 03s
True Declination
0° 00' 00"
Sunlit
Object was in full shadow at epoch
Visualization orbit readout
Latitude
Unknown
Longitude
Unknown
Altitude
Unknown
Speed
Unknown
Apparent Right ascension
Unknown
Apparent Declination
Unknown
Sunlit
N/A
Visualization observer readout
Local Sidereal Time
19:54:18
Azimuth
Unknown
Elevation
Unknown
Doppler factor
Unknown
Orbital elements
Apogee altitude
793.924 km
Perigee altitude
770.271 km
Semi-major axis
7,160.234 km
Eccentricity
0.00165
Inclination
98.8178°
RAAN
63.7657°
Arg. of periapsis
16.8029°
True anomaly
343.31542°
Mean anomaly
343.3697°
Eccentric anomaly
343.34257°
Mean motion
3.58222 °/min
Orbital period
100.5 mins
BSTAR
0.0040071
Loading maneuver chart data...
Computing Atmospheric mass density...
Loading historical data...
Loading historical data...
Loading historical data...
Loading historical data...
Loading historical data...
Loading historical data...
Loading historical data...

Documentation

Showing up to 5 results
|